Theta_e
359 356 356 352 351 351 350 351 350 351 349 349 348 344 342 340 339 337 337 351 347 347 348 349 354 356 356 355 358 357 356 354 353 352 350 350 350 350 350 350 350 350 349
365 356 357 355 354 353 352 351 352 353 353 354 352 353 352 351 349 348 340 340 347 347 348 348 351 355 357 358 357 358 356 354 354 353 351 350 349 349 350 350 350 350 349
365 364 355 354 352 357 356 355 354 354 351 351 353 350 349 351 350 354 351 346 343 345 346 348 348 352 356 358 360 359 356 354 354 353 351 350 349 348 349 350 350 350 349
362 363 356 355 357 361 357 355 354 351 351 350 352 351 351 353 351 351 348 351 348 346 345 347 349 350 354 358 360 361 358 354 353 352 351 350 350 349 348 349 349 349 349
359 359 356 359 366 356 354 353 352 355 351 350 346 348 350 350 352 349 353 351 352 349 348 349 348 350 352 355 358 362 360 355 352 351 351 351 351 350 349 349 348 348 348
358 359 358 360 360 356 352 351 359 352 351 349 344 343 348 350 350 351 350 350 350 351 352 355 352 345 349 353 355 358 360 358 354 351 350 349 349 350 349 349 349 348 347
358 363 358 360 359 356 357 357 353 355 347 349 342 342 344 349 352 350 350 350 350 351 354 350 353 351 348 348 349 353 357 359 358 354 349 347 348 349 350 349 348 347 346
361 360 360 357 361 350 356 353 352 344 341 342 335 336 331 335 338 344 349 348 351 347 347 351 351 355 355 352 351 349 353 357 359 358 352 347 347 349 349 349 349 348 346
356 360 357 354 350 347 336 352 347 347 336 338 345 333 330 324 332 339 340 345 345 344 345 348 349 353 356 353 351 351 349 350 354 356 356 351 349 349 350 349 348 348 347
353 350 346 344 348 341 346 342 339 343 341 332 333 336 341 337 327 324 333 336 341 340 349 345 346 348 350 351 350 348 344 346 351 353 354 355 353 352 350 349 348 347 347
345 340 342 344 344 338 346 342 341 345 337 334 330 330 335 330 337 332 324 328 333 335 337 338 344 343 349 348 348 344 338 340 342 345 347 350 352 353 352 350 349 348 348
338 343 338 342 343 342 338 336 341 341 342 338 332 332 326 323 322 323 322 325 325 329 334 337 338 340 343 345 346 338 335 334 334 335 337 341 344 347 348 350 351 351 351
333 345 345 345 338 341 337 341 342 340 338 333 341 328 326 324 325 324 325 323 320 326 328 333 334 338 339 343 343 338 338 331 328 328 330 332 335 338 344 347 349 351 351
334 351 343 341 339 338 340 342 333 331 338 333 338 337 325 323 323 321 319 319 318 320 323 334 330 332 331 334 336 335 340 331 329 326 325 326 329 332 336 340 342 344 346
330 336 339 340 338 339 340 342 331 337 336 337 334 338 331 325 324 322 321 319 317 312 314 322 322 336 334 336 338 337 337 337 331 326 325 325 325 327 330 333 334 336 337
336 334 335 340 339 338 339 341 333 335 336 331 330 333 335 328 329 327 325 323 322 320 315 319 320 330 336 333 333 337 340 332 330 327 326 325 323 323 325 327 328 330 331
335 334 334 333 334 338 340 340 339 336 334 335 333 332 332 334 327 326 326 325 323 323 318 320 324 329 334 333 332 340 338 341 338 328 325 324 321 321 322 323 324 325 327
332 331 331 330 329 331 337 337 334 333 333 331 331 332 330 330 331 331 327 327 324 326 322 321 324 324 328 334 335 338 335 334 337 332 324 323 321 319 319 319 319 321 321
325 325 325 325 326 328 331 333 333 333 332 332 332 331 330 330 328 328 329 327 326 326 326 322 321 322 322 324 326 331 331 337 338 334 324 323 321 319 318 318 317 317 316
322 322 323 322 322 323 324 326 326 329 331 331 331 331 331 329 329 329 327 327 327 325 325 322 321 320 320 324 325 325 325 331 331 336 330 330 326 320 318 318 317 319 316
319 319 318 318 320 321 318 323 325 325 326 326 328 328 329 328 323 324 325 326 325 324 322 320 317 317 316 316 319 317 322 325 330 335 338 339 340 338 334 319 326 321 315
316 316 316 315 318 316 307 305 309 317 318 318 319 321 324 320 321 314 314 314 319 322 321 317 317 316 319 317 318 317 313 319 318 330 335 328 335 340 341 339 323 318 312
319 315 315 314 316 318 306 303 304 314 316 317 318 318 318 315 316 319 315 311 312 310 311 319 317 317 317 320 320 319 315 321 321 325 330 326 334 334 338 325 313 310 309
315 314 314 314 315 315 302 298 300 308 310 311 312 313 314 316 318 317 318 318 318 322 319 314 315 319 321 323 323 320 319 320 323 323 329 322 332 335 330 323 307 308 308
310 309 308 309 308 308 300 296 298 303 304 306 308 310 309 309 306 303 311 314 316 319 314 308 308 306 305 304 308 317 312 311 312 319 325 326 326 330 330 326 318 304 303
303 302 300 301 299 298 297 296 297 298 298 299 301 303 303 303 302 299 311 313 314 315 316 315 311 305 303 311 303 314 315 311 311 316 324 318 318 321 319 325 325 317 319
Wind_Speed
7 8 7 7 7 8 8 7 8 7 8 10 11 12 12 12 11 7 7 10 13 12 13 15 15 16 16 15 15 16 15 15 15 14 14 13 13 13 13 12 11 11 10
6 8 8 8 8 7 7 7 8 7 8 10 11 11 12 12 12 11 10 10 15 15 16 16 17 17 16 15 15 16 17 16 15 15 14 15 15 15 15 14 14 13 12
8 8 8 7 8 7 7 7 8 7 8 9 11 11 12 13 13 12 11 10 11 18 18 17 18 19 17 15 16 19 18 17 16 17 17 16 16 15 15 16 16 15 15
11 8 8 8 8 5 6 7 7 8 9 10 8 9 10 10 12 11 12 11 11 11 14 17 18 19 16 16 17 20 20 18 17 18 17 17 16 16 17 17 17 16 17
12 10 8 7 4 6 6 7 7 7 7 9 10 10 10 10 11 12 12 12 12 12 10 8 15 16 16 17 18 21 22 21 21 19 19 18 18 18 18 18 18 18 18
10 9 9 7 2 7 7 7 6 7 9 10 11 11 10 11 11 10 11 12 12 12 11 10 8 11 17 19 18 20 21 21 20 23 21 19 19 19 19 19 19 19 18
13 10 9 9 8 8 6 6 7 9 9 9 10 11 10 11 14 12 11 11 12 12 11 9 8 9 8 19 19 18 19 21 21 20 20 21 20 20 19 19 20 20 19
11 9 9 6 7 6 6 5 7 8 8 9 10 10 12 11 11 10 12 10 12 10 10 8 10 10 9 8 11 19 19 19 18 18 19 20 20 20 19 20 21 20 19
10 10 7 5 4 4 6 7 6 7 8 8 8 10 10 12 12 12 13 8 3 11 8 8 10 10 8 8 9 9 18 19 19 19 19 19 19 21 21 20 20 20 20
10 10 8 8 6 5 2 3 5 5 5 8 7 7 9 10 10 11 11 13 11 5 14 8 9 9 11 8 11 10 5 13 14 14 16 17 19 21 21 21 20 19 20
10 11 9 8 6 5 4 4 5 5 6 7 8 8 9 10 9 6 13 12 10 10 11 4 10 8 8 8 10 8 6 10 10 12 13 13 16 19 20 21 20 19 20
9 9 9 7 6 5 5 5 6 7 7 6 8 8 8 9 10 10 11 12 12 11 11 10 11 10 8 8 11 8 6 8 10 12 12 12 13 16 19 20 20 20 21
8 9 8 7 7 7 7 6 6 6 6 7 6 8 8 9 10 9 10 11 11 11 10 9 9 9 9 7 7 3 2 5 11 12 13 14 14 15 17 18 20 20 20
8 9 9 8 9 9 9 7 7 8 8 8 9 8 8 8 9 9 9 11 11 11 10 9 9 12 8 5 6 11 8 10 11 11 13 15 15 14 15 16 16 17 17
4 7 10 10 10 10 9 9 9 9 9 8 9 9 9 9 9 9 9 9 10 12 11 11 10 8 10 10 10 7 6 15 5 9 11 13 13 14 13 15 16 16 13
6 7 7 10 11 11 11 10 11 11 11 10 10 11 10 9 9 8 8 9 9 10 12 11 10 10 8 8 12 14 14 8 7 14 17 16 14 14 14 14 14 14 13
9 10 11 12 12 12 12 12 12 13 14 13 14 14 14 13 11 10 9 9 10 10 12 10 10 10 12 12 12 12 11 11 11 14 18 15 13 13 13 14 13 13 14
10 11 13 14 15 16 14 15 16 16 16 17 17 17 17 13 15 14 12 13 12 11 11 15 11 11 12 11 10 11 10 11 11 14 9 7 9 11 13 12 13 15 15
10 11 12 14 16 16 15 16 16 18 19 20 19 19 18 18 17 14 15 13 12 10 11 11 10 10 11 11 12 10 12 10 10 13 12 12 10 11 12 13 13 14 12
12 13 14 16 16 17 17 17 18 17 18 17 19 20 20 19 19 17 16 16 14 13 12 12 11 10 10 10 11 9 10 8 6 10 7 8 10 12 11 12 12 13 11
14 15 16 17 17 15 14 17 16 17 17 18 19 19 19 20 24 21 15 15 16 15 13 13 12 11 9 9 10 7 11 6 8 9 7 4 6 6 7 10 10 12 10
15 16 17 18 17 14 15 6 7 13 16 17 17 17 17 18 16 18 21 23 20 16 16 13 13 12 10 8 11 7 7 12 10 6 6 8 6 5 7 8 12 10 10
13 15 16 18 18 17 13 11 6 13 15 16 17 16 17 17 17 19 17 21 22 21 22 18 18 14 14 10 9 11 13 10 11 10 9 8 7 7 3 4 5 8 9
14 15 16 17 17 14 9 3 3 12 15 15 15 16 17 17 17 17 18 18 17 15 15 11 15 15 15 11 10 10 11 11 10 11 11 7 6 7 3 7 7 7 6
15 15 15 15 15 13 9 8 12 12 14 16 17 18 17 17 19 15 15 18 18 17 13 17 16 14 13 11 10 8 11 11 12 10 9 4 8 4 3 5 5 11 10
14 11 14 14 16 16 17 17 17 11 13 11 14 16 23 23 20 10 14 14 17 16 16 14 5 7 8 12 15 13 12 13 11 9 6 4 5 4 2 1 4 4 5
Wind_Direction
214 210 235 242 212 211 208 229 234 255 241 242 254 256 258 263 270 272 274 192 191 212 221 236 231 236 227 225 226 220 224 223 221 217 217 219 209 218 223 226 233 236 219
215 228 220 229 248 246 260 243 236 248 236 249 255 252 261 270 265 260 258 261 196 201 219 228 237 233 229 222 218 217 213 223 223 223 217 214 217 214 217 223 225 230 231
232 230 232 227 233 233 250 268 276 262 263 266 264 268 270 267 259 256 258 258 252 207 214 213 231 239 228 224 212 213 213 216 220 222 219 217 216 218 216 219 223 226 228
232 212 239 228 234 232 233 234 247 247 249 254 258 266 269 266 261 257 261 262 260 265 215 217 217 231 232 225 219 213 212 211 216 223 223 219 218 216 214 215 218 223 228
211 232 227 227 230 244 249 253 260 286 288 274 279 271 267 263 268 272 271 261 255 257 266 216 208 224 220 224 221 217 217 208 204 210 224 221 220 218 213 211 216 218 225
209 196 230 245 216 241 239 243 246 284 304 302 296 296 300 297 289 277 256 253 257 259 255 244 251 232 217 221 226 225 222 226 222 204 207 218 223 223 216 208 211 216 221
204 201 233 179 216 247 262 290 272 252 258 265 274 273 268 256 247 246 249 263 267 253 246 261 240 255 238 212 215 227 237 231 225 226 215 206 215 223 222 214 208 211 215
208 209 224 226 198 246 217 272 281 288 291 294 294 302 293 285 273 257 241 236 245 261 268 268 255 262 256 271 211 215 221 234 244 240 230 216 212 215 222 219 214 207 213
206 204 190 238 182 232 257 197 231 261 281 294 304 299 297 294 327 315 319 316 337 270 246 248 285 276 243 265 282 239 216 220 225 229 235 232 218 215 215 220 218 209 206
184 185 181 190 207 242 336 254 247 261 283 285 286 272 253 268 286 300 306 309 305 303 279 247 251 271 297 273 246 256 223 226 235 239 239 238 229 230 217 215 216 212 205
185 181 190 194 193 215 221 240 266 256 278 278 287 290 301 294 260 259 286 293 296 297 293 268 264 245 240 283 293 244 275 211 218 232 245 251 247 233 231 224 212 209 208
188 197 187 191 196 217 228 242 238 243 259 288 294 299 283 285 290 295 292 296 298 291 291 300 296 300 290 251 250 242 217 225 228 235 240 241 240 253 252 225 224 213 212
184 174 199 192 199 211 236 230 226 256 260 260 266 278 290 288 292 288 292 283 295 287 296 290 294 285 269 281 276 201 216 253 257 249 244 242 240 244 246 237 219 222 218
192 152 186 211 218 215 212 223 231 236 243 234 238 249 274 279 282 286 294 301 301 298 297 310 313 315 313 340 340 236 229 221 239 243 245 246 248 237 237 236 229 221 216
254 189 191 211 224 226 228 223 233 243 236 246 245 237 246 268 270 274 292 297 295 294 295 304 293 283 302 319 334 347 295 291 203 246 255 257 250 241 228 232 232 220 204
272 277 238 215 226 236 235 232 241 237 236 242 247 246 242 254 268 264 269 279 281 285 289 295 299 311 286 289 295 298 299 282 248 250 247 235 229 231 223 217 227 223 206
271 265 260 260 249 235 239 242 246 258 265 241 239 251 255 243 249 258 261 264 271 280 288 294 308 312 310 308 304 299 298 300 290 272 247 237 219 222 224 209 209 217 231
283 276 273 268 266 262 253 235 242 248 243 246 250 247 246 248 245 244 252 254 258 265 278 282 279 282 273 276 269 292 295 295 290 283 248 241 232 225 221 222 211 213 214
279 277 277 273 270 267 264 262 259 252 245 250 253 256 257 252 253 257 259 259 254 249 252 269 290 302 293 284 279 270 275 265 272 264 227 224 224 220 219 217 215 220 211
283 279 275 273 271 270 269 268 267 266 265 262 254 251 252 253 254 255 256 258 262 265 263 263 264 265 270 277 274 265 257 258 290 295 314 265 196 202 211 217 210 225 223
280 278 276 273 271 268 264 262 263 264 266 266 266 265 260 251 247 246 252 250 251 254 256 260 258 264 266 307 324 327 317 295 301 281 274 281 240 225 221 213 223 215 214
278 278 277 277 276 274 282 300 290 287 284 281 280 281 284 284 273 240 233 242 249 257 261 265 278 272 277 281 290 315 317 313 284 270 288 303 298 262 255 204 190 208 203
285 282 281 280 278 278 278 281 304 287 281 277 277 277 273 269 273 273 261 237 237 235 237 252 257 260 270 263 277 284 292 287 297 314 317 287 274 263 174 81 94 105 130
286 283 281 280 284 287 337 67 335 300 284 280 277 275 274 276 271 276 280 277 268 255 244 234 244 249 250 257 266 273 270 289 279 284 264 280 284 263 102 114 75 88 123
304 302 300 297 291 289 324 8 340 307 288 288 279 275 278 273 268 262 270 272 268 263 253 229 218 217 217 213 224 250 271 281 279 260 274 303 272 265 159 117 104 78 54
296 301 302 301 303 297 289 292 292 289 275 269 269 270 258 250 254 245 266 271 265 257 253 253 217 226 214 228 228 241 257 255 248 263 252 233 255 239 129 134 117 146 91